• In Belarus
  • List of Countries
  • For 7 days
  • Water Temperature
  • Satellite Maps
  • Weather Map
  • Weather Widgets
  • user-avatar
    Login

    Hourly Weather Kapan

    Today, 21 July, Sunday

    Time Temperature Precipitation Wind Pressure Humidity
    00:00 +21°C° 0 mm 2 mps 686 mmHg 63%
    01:00 +23°C° 0 mm 2 mps 686 mmHg 63%
    02:00 +23°C° 0 mm 2 mps 686 mmHg 62%
    03:00 +23°C° 0 mm 2 mps 686 mmHg 61%
    04:00 +23°C° 0 mm 2 mps 686 mmHg 61%
    05:00 +24°C° 0 mm 1 mps 686 mmHg 60%
    06:00 +24°C° 0 mm 1 mps 686 mmHg 59%
    07:00 +26°C° 0 mm 2 mps 686 mmHg 54%
    08:00 +27°C° 0 mm 2 mps 686 mmHg 49%
    09:00 +29°C° 0 mm 2 mps 687 mmHg 44%
    10:00 +30°C° 0 mm 3 mps 686 mmHg 40%
    11:00 +33°C° 0 mm 3 mps 686 mmHg 36%
    12:00 +34°C° 0 mm 3 mps 686 mmHg 33%
    13:00 +35°C° 0 mm 3 mps 686 mmHg 32%
    14:00 +35°C° 0 mm 3 mps 685 mmHg 31%
    15:00 +36°C° 0 mm 3 mps 684 mmHg 30%
    16:00 +35°C° 0 mm 3 mps 684 mmHg 32%
    17:00 +34°C° 0 mm 3 mps 684 mmHg 35%
    18:00 +33°C° 0 mm 3 mps 684 mmHg 38%
    19:00 +30°C° 0 mm 2 mps 683 mmHg 43%
    20:00 +28°C° 0 mm 2 mps 683 mmHg 48%
    21:00 +26°C° 0 mm 1 mps 683 mmHg 53%
    22:00 +26°C° 0 mm 2 mps 683 mmHg 54%
    23:00 +26°C° 0 mm 2 mps 683 mmHg 54%

    Tomorrow, 22 July, Monday

    Time Temperature Precipitation Wind Pressure Humidity
    00:00 +25°C° 0 mm 2 mps 683 mmHg 55%
    01:00 +25°C° 0 mm 2 mps 683 mmHg 54%
    02:00 +25°C° 0 mm 1 mps 683 mmHg 54%
    03:00 +25°C° 0 mm 1 mps 683 mmHg 53%
    04:00 +26°C° 0 mm 1 mps 683 mmHg 52%
    05:00 +26°C° 0 mm 1 mps 683 mmHg 51%
    06:00 +25°C° 0 mm 0 mps 683 mmHg 50%
    07:00 +29°C° 0 mm 1 mps 683 mmHg 45%
    08:00 +30°C° 0 mm 1 mps 683 mmHg 41%
    09:00 +32°C° 0 mm 2 mps 683 mmHg 37%
    10:00 +35°C° 0 mm 2 mps 683 mmHg 34%
    11:00 +36°C° 0 mm 3 mps 683 mmHg 32%
    12:00 +37°C° 0 mm 3 mps 683 mmHg 29%
    13:00 +37°C° 0 mm 4 mps 683 mmHg 30%
    14:00 +37°C° 0 mm 4 mps 682 mmHg 31%
    15:00 +37°C° 0 mm 4 mps 681 mmHg 33%
    16:00 +36°C° 0 mm 4 mps 681 mmHg 37%
    17:00 +34°C° 0 mm 4 mps 681 mmHg 41%
    18:00 +33°C° 0 mm 4 mps 681 mmHg 45%
    19:00 +30°C° 0 mm 3 mps 681 mmHg 52%
    20:00 +28°C° 0 mm 2 mps 681 mmHg 60%
    21:00 +25°C° 0 mm 1 mps 681 mmHg 67%
    22:00 +25°C° 0 mm 1 mps 681 mmHg 68%
    23:00 +25°C° 0 mm 1 mps 680 mmHg 69%

    Day after tomorrow, 23 July, Tuesday

    Time Temperature Precipitation Wind Pressure Humidity
    00:00 +24°C° 0 mm 1 mps 680 mmHg 70%
    01:00 +24°C° 0 mm 1 mps 680 mmHg 71%
    02:00 +24°C° 0 mm 1 mps 680 mmHg 72%
    03:00 +23°C° 0 mm 1 mps 680 mmHg 73%
    04:00 +24°C° 0 mm 1 mps 681 mmHg 73%
    05:00 +24°C° 0 mm 1 mps 681 mmHg 72%
    06:00 +24°C° 0 mm 1 mps 682 mmHg 71%
    07:00 +26°C° 0 mm 2 mps 682 mmHg 63%
    08:00 +28°C° 0 mm 2 mps 682 mmHg 56%
    09:00 +29°C° 0 mm 3 mps 682 mmHg 49%
    10:00 +31°C° 0 mm 3 mps 682 mmHg 45%
    11:00 +33°C° 0 mm 3 mps 682 mmHg 41%
    12:00 +34°C° 0 mm 4 mps 681 mmHg 38%
    13:00 +34°C° 0 mm 4 mps 681 mmHg 36%
    14:00 +35°C° 0 mm 4 mps 681 mmHg 35%
    15:00 +35°C° 0 mm 4 mps 680 mmHg 34%
    16:00 +34°C° 0 mm 4 mps 680 mmHg 38%
    17:00 +33°C° 0 mm 3 mps 680 mmHg 42%
    18:00 +30°C° 0 mm 3 mps 680 mmHg 46%
    19:00 +28°C° 0 mm 3 mps 680 mmHg 52%
    20:00 +27°C° 0 mm 2 mps 680 mmHg 57%
    21:00 +25°C° 0 mm 1 mps 680 mmHg 63%
    22:00 +24°C° 0 mm 1 mps 680 mmHg 64%
    23:00 +24°C° 0 mm 1 mps 680 mmHg 66%

    24 July, Wednesday

    Time Temperature Precipitation Wind Pressure Humidity
    00:00 +23°C° 0 mm 1 mps 680 mmHg 67%
    01:00 +23°C° 0 mm 1 mps 680 mmHg 68%
    02:00 +23°C° 0 mm 1 mps 680 mmHg 68%
    03:00 +23°C° 0 mm 1 mps 680 mmHg 68%
    04:00 +23°C° 0 mm 1 mps 680 mmHg 67%
    05:00 +22°C° 0 mm 0 mps 681 mmHg 65%
    06:00 +23°C° 0 mm 0 mps 681 mmHg 64%
    07:00 +26°C° 0 mm 1 mps 681 mmHg 58%
    08:00 +28°C° 0 mm 2 mps 682 mmHg 53%
    09:00 +30°C° 0 mm 2 mps 682 mmHg 48%
    10:00 +31°C° 0 mm 2 mps 682 mmHg 43%
    11:00 +33°C° 0 mm 3 mps 682 mmHg 39%
    12:00 +35°C° 0 mm 3 mps 682 mmHg 35%
    13:00 +35°C° 0 mm 3 mps 681 mmHg 32%
    14:00 +36°C° 0 mm 3 mps 681 mmHg 30%
    15:00 +36°C° 0 mm 3 mps 681 mmHg 28%
    16:00 +35°C° 0 mm 3 mps 681 mmHg 31%
    17:00 +34°C° 0 mm 3 mps 680 mmHg 34%
    18:00 +33°C° 0 mm 3 mps 680 mmHg 37%
    19:00 +30°C° 0 mm 2 mps 680 mmHg 42%
    20:00 +28°C° 0 mm 2 mps 680 mmHg 47%
    21:00 +26°C° 0 mm 1 mps 680 mmHg 52%
    22:00 +25°C° 0 mm 1 mps 681 mmHg 52%
    23:00 +25°C° 0 mm 1 mps 681 mmHg 52%

    25 July, Thursday

    Time Temperature Precipitation Wind Pressure Humidity
    00:00 +25°C° 0 mm 1 mps 681 mmHg 52%
    01:00 +24°C° 0 mm 1 mps 681 mmHg 52%
    02:00 +24°C° 0 mm 1 mps 681 mmHg 52%
    03:00 +24°C° 0 mm 1 mps 680 mmHg 52%
    04:00 +25°C° 0 mm 1 mps 681 mmHg 52%
    05:00 +25°C° 0 mm 1 mps 681 mmHg 51%
    06:00 +26°C° 0 mm 1 mps 681 mmHg 51%
    07:00 +28°C° 0 mm 1 mps 682 mmHg 47%
    08:00 +30°C° 0 mm 2 mps 682 mmHg 43%
    09:00 +31°C° 0 mm 2 mps 682 mmHg 39%
    10:00 +34°C° 0 mm 3 mps 682 mmHg 36%
    11:00 +35°C° 0 mm 3 mps 682 mmHg 33%
    12:00 +36°C° 0 mm 4 mps 682 mmHg 30%
    13:00 +36°C° 0 mm 4 mps 681 mmHg 31%
    14:00 +36°C° 0 mm 4 mps 680 mmHg 31%
    15:00 +37°C° 0 mm 4 mps 680 mmHg 31%
    16:00 +35°C° 0 mm 4 mps 679 mmHg 33%
    17:00 +34°C° 0 mm 4 mps 679 mmHg 36%
    18:00 +33°C° 0 mm 4 mps 679 mmHg 39%
    19:00 +30°C° 0 mm 3 mps 679 mmHg 44%
    20:00 +27°C° 0 mm 2 mps 679 mmHg 50%
    21:00 +25°C° 0 mm 1 mps 679 mmHg 55%
    22:00 +25°C° 0 mm 1 mps 679 mmHg 55%
    23:00 +24°C° 0 mm 1 mps 679 mmHg 56%

    26 July, Friday

    Time Temperature Precipitation Wind Pressure Humidity
    00:00 +24°C° 0 mm 1 mps 679 mmHg 56%
    01:00 +24°C° 0 mm 1 mps 679 mmHg 57%
    02:00 +23°C° 0 mm 1 mps 679 mmHg 58%
    03:00 +23°C° 0 mm 1 mps 679 mmHg 59%
    04:00 +23°C° 0 mm 1 mps 679 mmHg 59%
    05:00 +24°C° 0 mm 1 mps 679 mmHg 59%
    06:00 +24°C° 0 mm 1 mps 679 mmHg 59%
    07:00 +26°C° 0 mm 1 mps 679 mmHg 55%
    08:00 +27°C° 0 mm 2 mps 680 mmHg 51%
    09:00 +28°C° 0 mm 2 mps 680 mmHg 46%
    10:00 +30°C° 0 mm 3 mps 679 mmHg 43%
    11:00 +31°C° 0 mm 3 mps 679 mmHg 40%
    12:00 +33°C° 0 mm 3 mps 679 mmHg 37%
    13:00 +34°C° 0 mm 3 mps 679 mmHg 35%
    14:00 +34°C° 0 mm 3 mps 678 mmHg 34%
    15:00 +35°C° 0 mm 4 mps 678 mmHg 32%
    16:00 +34°C° 0 mm 3 mps 678 mmHg 34%
    17:00 +33°C° 0 mm 3 mps 677 mmHg 37%
    18:00 +31°C° 0 mm 3 mps 677 mmHg 39%
    19:00 +29°C° 0 mm 3 mps 677 mmHg 45%
    20:00 +27°C° 0 mm 2 mps 678 mmHg 50%
    21:00 +25°C° 0 mm 1 mps 678 mmHg 56%
    22:00 +24°C° 0 mm 1 mps 678 mmHg 58%
    23:00 +24°C° 0 mm 1 mps 678 mmHg 60%
    Show more